Springfield, MO

1:31 PM CDT on May 24, 2018 (GMT -0500)
Springfield-Branson Regional

Weather History for KSGF - December, 2013

Change the Weather History Date:

Monday, December 9, 2013

  Actual Average Record
Temperature  
Mean Temperature 22 °F 36 °F  
Max Temperature 27 °F 46 °F 71 °F (1940)
Min Temperature 17 °F 26 °F -8 °F (1917)
Degree Days  
Heating Degree Days 43 29  
Month to date heating degree days 292 248  
Since 1 July heating degree days 1229 1127  
Cooling Degree Days 0 0  
Month to date cooling degree days 0 0  
Year to date cooling degree days 1417 1389  
Moisture  
Dew Point 17 °F    
Average Humidity 80    
Maximum Humidity 92    
Minimum Humidity 68    
Precipitation  
Precipitation 0.22 in 0.10 in 2.77 in (1999)
Month to date precipitation 0.55 1.02  
Year to date precipitation 49.83 43.55  
Snow  
Snow 4.30 in - - ()
Month to date snowfall 11.6  
Since 1 July snowfall 11.6  
Snow Depth 3.00 in    
Sea Level Pressure  
Sea Level Pressure 30.26 in    
Wind  
Wind Speed 9 mph (NW)    
Max Wind Speed 15 mph    
Max Gust Speed 18 mph    
Visibility 6 miles    
Events Snow    
T = Trace of Precipitation, MM = Missing Value Source: NWS Daily Summary

Daily Weather History Graph

Daily Weather History Graph

Search for Another Location

Airport or City:

Astronomy

Dec. 09, 2013 Rise Set
Actual Time 7:16 AM CST 4:56 PM CST
Civil Twilight 6:47 AM CST 5:25 PM CST
Nautical Twilight 6:14 AM CST 5:57 PM CST
Astronomical Twilight 5:42 AM CST 6:29 PM CST
Moon 12:17 PM CST (12/9) No Moon Set
Length of Visible Light 10h 38m
Length of Day
9h 40m
Waxing Crescent, 51% of the Moon is Illuminated
Dec 9
Waxing Crescent
Dec 17
Full
Dec 25
Last Quarter
Jan 1
New
Jan 7
First Quarter

Hourly Weather History & Observations

Time (CST) Temp. Windchill Dew Point Humidity Pressure Visibility Wind Dir Wind Speed Gust Speed Precip Events Conditions
12:23 AM 26.1 °F 16.2 °F 23.0 °F 88% 30.12 in 10.0 mi West 10.4 mph - N/A   Overcast
12:52 AM 25.0 °F 16.3 °F 21.9 °F 88% 30.18 in 10.0 mi West 8.1 mph - N/A   Scattered Clouds
1:18 AM 25.0 °F 15.5 °F 21.0 °F 85% 30.14 in 10.0 mi WNW 9.2 mph - N/A   Mostly Cloudy
1:52 AM 25.0 °F 13.6 °F 21.0 °F 85% 30.19 in 10.0 mi West 12.7 mph - N/A   Overcast
2:52 AM 25.0 °F 16.3 °F 21.0 °F 85% 30.20 in 10.0 mi WNW 8.1 mph - N/A   Overcast
3:13 AM 24.1 °F 14.4 °F 21.0 °F 88% 30.16 in 10.0 mi WNW 9.2 mph - N/A   Overcast
3:52 AM 24.1 °F 14.4 °F 19.9 °F 84% 30.21 in 10.0 mi WNW 9.2 mph - N/A   Overcast
4:03 AM 24.1 °F 15.2 °F 19.9 °F 84% 30.16 in 10.0 mi WNW 8.1 mph - N/A   Overcast
4:29 AM 23.0 °F 13.9 °F 19.9 °F 88% 30.16 in 10.0 mi NW 8.1 mph - N/A   Overcast
4:52 AM 24.1 °F 14.4 °F 19.9 °F 84% 30.19 in 10.0 mi NW 9.2 mph - N/A   Overcast
5:01 AM 24.1 °F 13.7 °F 19.9 °F 84% 30.13 in 10.0 mi NNW 10.4 mph - N/A   Overcast
5:45 AM 23.0 °F 13.9 °F 19.0 °F 85% 30.19 in 10.0 mi NNW 8.1 mph - N/A   Overcast
5:52 AM 23.0 °F 12.4 °F 19.0 °F 85% 30.22 in 10.0 mi North 10.4 mph - N/A   Overcast
6:20 AM 23.0 °F 13.9 °F 19.0 °F 85% 30.20 in 10.0 mi NW 8.1 mph - N/A   Overcast
6:27 AM 21.9 °F 13.4 °F 18.0 °F 85% 30.21 in 10.0 mi NW 6.9 mph - N/A   Overcast
6:52 AM 21.9 °F 11.7 °F 17.1 °F 82% 30.27 in 10.0 mi WNW 9.2 mph - N/A   Overcast
7:52 AM 21.0 °F 11.4 °F 15.1 °F 78% 30.31 in 10.0 mi NW 8.1 mph - N/A   Mostly Cloudy
8:06 AM 19.9 °F 7.9 °F 15.1 °F 81% 30.26 in 10.0 mi NW 11.5 mph - N/A   Scattered Clouds
8:37 AM 19.9 °F 9.3 °F 15.1 °F 81% 30.28 in 10.0 mi NW 9.2 mph - N/A   Mostly Cloudy
8:52 AM 19.9 °F 8.6 °F 16.0 °F 85% 30.34 in 10.0 mi NW 10.4 mph - N/A   Overcast
9:16 AM 19.9 °F 6.7 °F 16.0 °F 85% 30.30 in 10.0 mi NNW 13.8 mph - N/A   Scattered Clouds
9:52 AM 19.9 °F 6.7 °F 15.1 °F 81% 30.36 in 10.0 mi NNW 13.8 mph - N/A   Clear
10:52 AM 21.0 °F 9.9 °F 12.9 °F 71% 30.36 in 10.0 mi NNW 10.4 mph - N/A   Partly Cloudy
11:52 AM 21.0 °F 9.9 °F 12.9 °F 71% 30.35 in 7.0 mi NNW 10.4 mph - N/A   Scattered Clouds
12:52 PM 21.9 °F 10.4 °F 12.0 °F 66% 30.32 in 10.0 mi NNW 11.5 mph - N/A   Overcast
1:52 PM 21.9 °F 11.0 °F 12.0 °F 66% 30.30 in 10.0 mi North 10.4 mph - N/A   Overcast
2:52 PM 21.9 °F 11.0 °F 12.0 °F 66% 30.29 in 10.0 mi North 10.4 mph - N/A   Overcast
3:33 PM 21.0 °F 9.3 °F 14.0 °F 74% 30.24 in 1.8 mi North 11.5 mph - 0.00 in Snow Light Snow
3:41 PM 19.9 °F 8.6 °F 15.1 °F 81% 30.23 in 1.0 mi North 10.4 mph - 0.00 in Snow Light Snow
3:52 PM 19.9 °F 7.9 °F 16.0 °F 85% 30.28 in 1.0 mi North 11.5 mph - 0.00 in Snow Light Snow
4:52 PM 19.9 °F 9.3 °F 16.0 °F 85% 30.28 in 1.0 mi North 9.2 mph - 0.01 in Snow Light Snow
5:22 PM 19.9 °F 13.4 °F 17.1 °F 89% 30.25 in 0.8 mi North 4.6 mph - 0.02 in Snow Light Snow
5:52 PM 19.9 °F 13.4 °F 17.1 °F 89% 30.30 in 1.0 mi North 4.6 mph - 0.04 in Snow Light Snow
6:52 PM 19.0 °F 8.2 °F 16.0 °F 88% 30.31 in 1.2 mi NNW 9.2 mph - 0.04 in Snow Light Snow
7:52 PM 19.0 °F 8.2 °F 15.1 °F 85% 30.30 in 0.8 mi North 9.2 mph - 0.03 in Snow Light Snow
8:05 PM 19.0 °F 9.0 °F 16.0 °F 88% 30.25 in 1.0 mi NNW 8.1 mph - 0.01 in Snow Light Snow
8:18 PM 19.0 °F 10.0 °F 16.0 °F 88% 30.25 in 2.0 mi NNW 6.9 mph - 0.01 in Snow Light Snow
8:31 PM 19.0 °F 11.1 °F 16.0 °F 88% 30.25 in 1.8 mi NNW 5.8 mph - 0.01 in Snow Light Snow
8:52 PM 19.0 °F 13.9 °F 16.0 °F 88% 30.32 in 1.2 mi NW 3.5 mph - 0.04 in Snow Light Snow
9:10 PM 19.0 °F 11.1 °F 16.0 °F 88% 30.27 in 1.0 mi West 5.8 mph - 0.01 in Snow Light Snow
9:52 PM 19.0 °F 11.1 °F 15.1 °F 85% 30.33 in 1.2 mi West 5.8 mph - 0.03 in Snow Light Snow
10:52 PM 18.0 °F 11.1 °F 15.1 °F 88% 30.35 in 1.5 mi WNW 4.6 mph - 0.02 in Snow Light Snow
10:59 PM 18.0 °F 11.1 °F 15.1 °F 88% 30.29 in 1.2 mi WNW 4.6 mph - 0.00 in Snow Light Snow
11:52 PM 17.1 °F 6.6 °F 14.0 °F 88% 30.35 in 2.0 mi NW 8.1 mph - 0.01 in Snow Light Snow